User: anonymous   Login
Location: Unspecified
(40.9833°N, 0.0000°E)
Time: 02:57:31
(UTC+00:00)
Language:

KAITUO 1B - Orbit

View from above orbital plane
View from above orbital plane
View from above satellite
View from above satellite

Ground track
Ground track

The orbit data is extracted from the following two-line orbital elements,

1 40912U 15049P   20220.83089297  .00001155  00000-0  56020-4 0  9996
2 40912  97.4478 227.9896 0015503 153.0943 331.4321 15.20432360270528
Epoch (UTC): 07 August 2020 19:56:29
Eccentricity: 0.0015503
inclination: 97.4478°
perigee height: 494 km
apogee height: 515 km
right ascension of ascending node: 227.9896°
argument of perigee: 153.0943°
revolutions per day: 15.20432360
mean anomaly at epoch: 331.4321°
orbit number at epoch: 27052

The dashed part of the orbit path shows where the satellite is in the earth's shadow,  

DLR